2019-06-14 00:08:26 r, 16.04m,0000000034Hz,0000013589c,0000000.029s, 035.1C,00002195
2019-06-14 00:18:26 r, 15.51m,0000000055Hz,0000008364c,0000000.018s, 035.1C,00002195
2019-06-14 00:28:26 r, 15.81m,0000000042Hz,0000010974c,0000000.024s, 034.8C,00002195
2019-06-14 00:38:26 r, 15.87m,0000000040Hz,0000011636c,0000000.025s, 034.4C,00002195
2019-06-14 00:48:26 r, 17.22m,0000000011Hz,0000040277c,0000000.087s, 034.1C,00002195
2019-06-14 00:58:26 r, 17.83m,0000000007Hz,0000070954c,0000000.154s, 033.8C,00002195
2019-06-14 01:08:26 r, 17.32m,0000000010Hz,0000044097c,0000000.096s, 033.5C,00002195
2019-06-14 01:18:26 r, 17.76m,0000000006Hz,0000066126c,0000000.144s, 033.5C,00002195
2019-06-14 01:28:26 r, 17.46m,0000000009Hz,0000049966c,0000000.108s, 033.5C,00002195
2019-06-14 01:38:26 r, 18.16m,0000000005Hz,0000094951c,0000000.206s, 033.1C,00002195
2019-06-14 01:48:26 r, 18.23m,0000000004Hz,0000101599c,0000000.220s, 032.8C,00002195
2019-06-14 01:58:26 r, 18.19m,0000000005Hz,0000097974c,0000000.213s, 032.8C,00002195
2019-06-14 02:08:26 r, 18.23m,0000000005Hz,0000101682c,0000000.221s, 032.5C,00002195
2019-06-14 02:18:26 r, 18.27m,0000000004Hz,0000105544c,0000000.229s, 032.5C,00002195
2019-06-14 02:28:26 r, 18.15m,0000000005Hz,0000094080c,0000000.204s, 032.2C,00002195
2019-06-14 02:38:26 r, 17.50m,0000000009Hz,0000051774c,0000000.112s, 032.2C,00002195
2019-06-14 02:48:26 r, 16.72m,0000000018Hz,0000025248c,0000000.055s, 032.2C,00002195
2019-06-14 02:58:26 r, 16.42m,0000000024Hz,0000019418c,0000000.042s, 032.2C,00002195
2019-06-14 03:08:26 r, 16.26m,0000000027Hz,0000016714c,0000000.036s, 032.2C,00002195
2019-06-14 03:18:26 r, 16.17m,0000000030Hz,0000015255c,0000000.033s, 032.2C,00002195
2019-06-14 03:28:26 r, 16.51m,0000000022Hz,0000020947c,0000000.045s, 032.2C,00002195
2019-06-14 03:38:26 r, 16.47m,0000000023Hz,0000020320c,0000000.044s, 032.2C,00002195
2019-06-14 03:48:26 r, 16.17m,0000000030Hz,0000015336c,0000000.033s, 032.2C,00002195
2019-06-14 03:58:26 r, 16.09m,0000000032Hz,0000014232c,0000000.031s, 032.2C,00002195
2019-06-14 04:08:26 r, 15.82m,0000000041Hz,0000011131c,0000000.024s, 032.2C,00002195
2019-06-14 04:18:26 r, 15.40m,0000000062Hz,0000007495c,0000000.016s, 032.2C,00002195
2019-06-14 04:28:26 r, 14.52m,0000000138Hz,0000000000c,0000000.000s, 031.9C,00002195
2019-06-14 04:38:26 r, 12.88m,0000000631Hz,0000000000c,0000000.000s, 031.9C,00002195
2019-06-14 04:48:26 r, 11.59m,0000002049Hz,0000000000c,0000000.000s, 031.9C,00002195
2019-06-14 04:58:26 r, 10.46m,0000005849Hz,0000000000c,0000000.000s, 031.9C,00002195
2019-06-14 05:08:26 r, 08.98m,0000022890Hz,0000000000c,0000000.000s, 031.9C,00002195
2019-06-14 05:18:26 r, 07.89m,0000062232Hz,0000000000c,0000000.000s, 031.9C,00002195
2019-06-14 05:28:26 r, 07.01m,0000139829Hz,0000000000c,0000000.000s, 031.9C,00002195
2019-06-14 05:38:26 r, 06.36m,0000255148Hz,0000000000c,0000000.000s, 031.9C,00002195
2019-06-14 05:48:26 r, 06.24m,0000283211Hz,0000000000c,0000000.000s, 032.2C,00002195
2019-06-14 05:58:26 r, 00.00m,0000526575Hz,0000000000c,0000000.000s, 032.2C,00002195
2019-06-14 06:08:26 r, 00.00m,0000564180Hz,0000000000c,0000000.000s, 032.2C,00002195
2019-06-14 06:18:43 r, 00.00m,0000564166Hz,0000000000c,0000000.000s, 031.9C,00002195
2019-06-14 06:28:43 r, 00.00m,0000564201Hz,0000000000c,0000000.000s, 032.5C,00002195
2019-06-14 06:38:43 r, 00.00m,0000564243Hz,0000000000c,0000000.000s, 033.1C,00002195
2019-06-14 06:48:43 r, 00.00m,0000564320Hz,0000000000c,0000000.000s, 033.5C,00002195
2019-06-14 06:58:43 r, 00.00m,0000564373Hz,0000000000c,0000000.000s, 033.8C,00002195
2019-06-14 07:08:43 r, 00.00m,0000564399Hz,0000000000c,0000000.000s, 034.1C,00002195
2019-06-14 07:18:43 r, 00.00m,0000564455Hz,0000000000c,0000000.000s, 034.8C,00002195
2019-06-14 07:28:43 r, 00.00m,0000564392Hz,0000000000c,0000000.000s, 035.1C,00002195
2019-06-14 07:38:43 r, 00.00m,0000564474Hz,0000000000c,0000000.000s, 035.7C,00002195
2019-06-14 07:48:43 r, 00.00m,0000564484Hz,0000000000c,0000000.000s, 035.7C,00002195
2019-06-14 07:58:43 r, 00.00m,0000564533Hz,0000000000c,0000000.000s, 036.0C,00002195
2019-06-14 08:08:43 r, 00.00m,0000564512Hz,0000000000c,0000000.000s, 036.0C,00002195
2019-06-14 08:18:43 r, 00.00m,0000564458Hz,0000000000c,0000000.000s, 036.4C,00002195
2019-06-14 08:28:43 r, 00.00m,0000564556Hz,0000000000c,0000000.000s, 036.7C,00002195
2019-06-14 08:38:43 r, 00.00m,0000564488Hz,0000000000c,0000000.000s, 036.0C,00002195
2019-06-14 08:48:43 r, 00.00m,0000564395Hz,0000000000c,0000000.000s, 035.7C,00002195
2019-06-14 08:58:43 r, 00.00m,0000564454Hz,0000000000c,0000000.000s, 036.0C,00002195
2019-06-14 09:08:43 r, 00.00m,0000564391Hz,0000000000c,0000000.000s, 036.4C,00002195
2019-06-14 09:18:43 r, 00.00m,0000564771Hz,0000000000c,0000000.000s, 038.3C,00002195
2019-06-14 09:28:43 r, 00.00m,0000565088Hz,0000000000c,0000000.000s, 041.5C,00002195
2019-06-14 09:38:43 r, 00.00m,0000565296Hz,0000000000c,0000000.000s, 043.8C,00002195
2019-06-14 09:48:43 r, 00.00m,0000565456Hz,0000000000c,0000000.000s, 045.4C,00002195
2019-06-14 09:58:43 r, 00.00m,0000565435Hz,0000000000c,0000000.000s, 046.4C,00002195
2019-06-14 10:08:43 r, 00.00m,0000565610Hz,0000000000c,0000000.000s, 047.3C,00002195
2019-06-14 10:18:43 r, 00.00m,0000565573Hz,0000000000c,0000000.000s, 048.0C,00002195
2019-06-14 10:28:43 r, 00.00m,0000565680Hz,0000000000c,0000000.000s, 048.6C,00002195
2019-06-14 10:38:43 r, 00.00m,0000565687Hz,0000000000c,0000000.000s, 049.6C,00002195
2019-06-14 10:48:43 r, 00.00m,0000565652Hz,0000000000c,0000000.000s, 049.9C,00002195
2019-06-14 10:58:43 r, 00.00m,0000565575Hz,0000000000c,0000000.000s, 049.3C,00002195
2019-06-14 11:08:43 r, 00.00m,0000565536Hz,0000000000c,0000000.000s, 049.3C,00002195
2019-06-14 11:18:43 r, 00.00m,0000565694Hz,0000000000c,0000000.000s, 050.9C,00002195
2019-06-14 11:28:43 r, 00.00m,0000565727Hz,0000000000c,0000000.000s, 051.5C,00002195
2019-06-14 11:38:43 r, 00.00m,0000565742Hz,0000000000c,0000000.000s, 051.5C,00002195
2019-06-14 11:48:43 r, 00.00m,0000565816Hz,0000000000c,0000000.000s, 052.5C,00002195
2019-06-14 11:58:43 r, 00.00m,0000565878Hz,0000000000c,0000000.000s, 053.1C,00002195
2019-06-14 12:08:43 r, 00.00m,0000565836Hz,0000000000c,0000000.000s, 053.5C,00002195
2019-06-14 12:18:43 r, 00.00m,0000565883Hz,0000000000c,0000000.000s, 053.8C,00002195
2019-06-14 12:28:43 r, 00.00m,0000565924Hz,0000000000c,0000000.000s, 054.1C,00002195
2019-06-14 12:38:43 r, 00.00m,0000565935Hz,0000000000c,0000000.000s, 054.7C,00002195
2019-06-14 12:48:43 r, 00.00m,0000565864Hz,0000000000c,0000000.000s, 055.1C,00002195
2019-06-14 12:58:43 r, 00.00m,0000565985Hz,0000000000c,0000000.000s, 055.7C,00002195
2019-06-14 13:08:43 r, 00.00m,0000565914Hz,0000000000c,0000000.000s, 056.4C,00002195
2019-06-14 13:18:43 r, 00.00m,0000565923Hz,0000000000c,0000000.000s, 056.7C,00002195
2019-06-14 13:28:43 r, 00.00m,0000565918Hz,0000000000c,0000000.000s, 056.7C,00002195
2019-06-14 13:38:43 r, 00.00m,0000565969Hz,0000000000c,0000000.000s, 057.0C,00002195
2019-06-14 13:48:43 r, 00.00m,0000565937Hz,0000000000c,0000000.000s, 056.0C,00002195
2019-06-14 13:58:43 r, 00.00m,0000565945Hz,0000000000c,0000000.000s, 056.0C,00002195
2019-06-14 14:08:43 r, 00.00m,0000565870Hz,0000000000c,0000000.000s, 056.0C,00002195
2019-06-14 14:18:43 r, 00.00m,0000565897Hz,0000000000c,0000000.000s, 057.0C,00002195
2019-06-14 14:28:43 r, 00.00m,0000566039Hz,0000000000c,0000000.000s, 058.0C,00002195
2019-06-14 14:38:43 r, 00.00m,0000566058Hz,0000000000c,0000000.000s, 058.3C,00002195
2019-06-14 14:48:43 r, 00.00m,0000566021Hz,0000000000c,0000000.000s, 057.6C,00002195
2019-06-14 14:58:43 r, 00.00m,0000565699Hz,0000000000c,0000000.000s, 054.1C,00002195
2019-06-14 15:08:43 r, 00.00m,0000565879Hz,0000000000c,0000000.000s, 055.4C,00002195
2019-06-14 15:18:43 r, 00.00m,0000565922Hz,0000000000c,0000000.000s, 056.0C,00002195
2019-06-14 15:28:43 r, 00.00m,0000565942Hz,0000000000c,0000000.000s, 056.4C,00002195
2019-06-14 15:38:43 r, 00.00m,0000565976Hz,0000000000c,0000000.000s, 056.7C,00002195
2019-06-14 15:48:43 r, 00.00m,0000565891Hz,0000000000c,0000000.000s, 057.3C,00002195
2019-06-14 15:58:43 r, 00.00m,0000565958Hz,0000000000c,0000000.000s, 056.7C,00002195
2019-06-14 16:08:43 r, 00.00m,0000565860Hz,0000000000c,0000000.000s, 055.4C,00002195
2019-06-14 16:18:43 r, 00.00m,0000565883Hz,0000000000c,0000000.000s, 055.1C,00002195
2019-06-14 16:28:43 r, 00.00m,0000565784Hz,0000000000c,0000000.000s, 054.4C,00002195
2019-06-14 16:38:43 r, 00.00m,0000565659Hz,0000000000c,0000000.000s, 053.1C,00002195
2019-06-14 16:48:43 r, 00.00m,0000565696Hz,0000000000c,0000000.000s, 053.1C,00002195
2019-06-14 16:58:43 r, 00.00m,0000565657Hz,0000000000c,0000000.000s, 052.5C,00002195
2019-06-14 17:08:43 r, 00.00m,0000565659Hz,0000000000c,0000000.000s, 052.2C,00002195
2019-06-14 17:18:43 r, 00.00m,0000565645Hz,0000000000c,0000000.000s, 052.2C,00002195
2019-06-14 17:28:43 r, 00.00m,0000565635Hz,0000000000c,0000000.000s, 052.2C,00002195
2019-06-14 17:38:43 r, 00.00m,0000565537Hz,0000000000c,0000000.000s, 051.8C,00002195
2019-06-14 17:48:43 r, 00.00m,0000565505Hz,0000000000c,0000000.000s, 051.2C,00002195
2019-06-14 17:58:43 r, 00.00m,0000565486Hz,0000000000c,0000000.000s, 049.9C,00002195
2019-06-14 18:08:43 r, 00.00m,0000565504Hz,0000000000c,0000000.000s, 049.6C,00002195
2019-06-14 18:18:43 r, 00.00m,0000565361Hz,0000000000c,0000000.000s, 048.9C,00002195
2019-06-14 18:28:43 r, 00.00m,0000565379Hz,0000000000c,0000000.000s, 048.3C,00002195
2019-06-14 18:38:43 r, 00.00m,0000565264Hz,0000000000c,0000000.000s, 047.7C,00002195
2019-06-14 18:48:43 r, 00.00m,0000565241Hz,0000000000c,0000000.000s, 046.7C,00002195
2019-06-14 18:58:43 r, 00.00m,0000565185Hz,0000000000c,0000000.000s, 045.7C,00002195
2019-06-14 19:08:43 r, 00.00m,0000565145Hz,0000000000c,0000000.000s, 045.4C,00002195
2019-06-14 19:18:43 r, 00.00m,0000565089Hz,0000000000c,0000000.000s, 044.8C,00002195
2019-06-14 19:28:43 r, 00.00m,0000564972Hz,0000000000c,0000000.000s, 043.8C,00002195
2019-06-14 19:38:43 r, 00.00m,0000564849Hz,0000000000c,0000000.000s, 042.8C,00002195
2019-06-14 19:48:43 r, 00.00m,0000564833Hz,0000000000c,0000000.000s, 042.2C,00002195
2019-06-14 19:58:43 r, 00.00m,0000564738Hz,0000000000c,0000000.000s, 040.6C,00002195
2019-06-14 20:08:43 r, 00.00m,0000564586Hz,0000000000c,0000000.000s, 039.6C,00002195
2019-06-14 20:18:43 r, 00.00m,0000564476Hz,0000000000c,0000000.000s, 038.3C,00002195
2019-06-14 20:28:43 r, 00.00m,0000564465Hz,0000000000c,0000000.000s, 037.7C,00002195
2019-06-14 20:38:43 r, 00.00m,0000523739Hz,0000000000c,0000000.000s, 037.0C,00002195
2019-06-14 20:48:43 r, 00.00m,0000444193Hz,0000000000c,0000000.000s, 036.4C,00002195
2019-06-14 20:58:43 r, 06.00m,0000353443Hz,0000000000c,0000000.000s, 036.0C,00002195
2019-06-14 21:08:43 r, 06.33m,0000261421Hz,0000000000c,0000000.000s, 035.4C,00002195
2019-06-14 21:18:43 r, 06.79m,0000171645Hz,0000000000c,0000000.000s, 035.1C,00002195
2019-06-14 21:28:43 r, 07.41m,0000097054Hz,0000000000c,0000000.000s, 034.8C,00002195
2019-06-14 21:38:43 r, 08.15m,0000048940Hz,0000000000c,0000000.000s, 034.4C,00002195
2019-06-14 21:48:43 r, 09.08m,0000020891Hz,0000000000c,0000000.000s, 034.1C,00002195
2019-06-14 21:58:43 r, 10.25m,0000007081Hz,0000000000c,0000000.000s, 033.8C,00002195
2019-06-14 22:08:43 r, 11.59m,0000002050Hz,0000000000c,0000000.000s, 033.1C,00002195
2019-06-14 22:18:43 r, 13.01m,0000000558Hz,0000000000c,0000000.000s, 033.1C,00002195
2019-06-14 22:28:43 r, 14.46m,0000000146Hz,0000000000c,0000000.000s, 032.8C,00002195
2019-06-14 22:38:43 r, 15.79m,0000000042Hz,0000010874c,0000000.024s, 032.8C,00002195
2019-06-14 22:48:44 r, 16.72m,0000000018Hz,0000025388c,0000000.055s, 032.8C,00002195
2019-06-14 22:58:43 r, 17.29m,0000000011Hz,0000043032c,0000000.093s, 032.5C,00002195
2019-06-14 23:08:44 r, 17.65m,0000000008Hz,0000059475c,0000000.129s, 032.2C,00002195
2019-06-14 23:18:44 r, 17.80m,0000000007Hz,0000068421c,0000000.148s, 032.2C,00002195
2019-06-14 23:28:43 r, 17.90m,0000000006Hz,0000074834c,0000000.162s, 031.9C,00002195
2019-06-14 23:38:44 r, 17.84m,0000000006Hz,0000070869c,0000000.154s, 031.5C,00002195
2019-06-14 23:48:44 r, 17.84m,0000000006Hz,0000071242c,0000000.155s, 031.2C,00002195
2019-06-14 23:58:44 r, 17.89m,0000000006Hz,0000074612c,0000000.162s, 031.2C,00002195
